UAE863 OOMS-OMDB

Flight info

Callsign UAE863
Flight time 0h 38m
Altitude 20000
Route MCT T508 SOLUD P574 IMPED
Aircraft A388/J-SADE2E3FGHIJ3J4J5M1RWXY/LB1D1

Departure

Time 2026-05-08 18:54
Airport Muscat International Airport (OOMS)

Arrival

Time 2026-05-08 19:32
Airport Dubai International Airport (OMDB)
Time Latitude Longitude Altitude Speed Heading
2026-05-08 18:20 23.59971 58.28585 46 ft 0 kts 40°
2026-05-08 18:39 23.59956 58.28570 44 ft 4 kts 44°
2026-05-08 18:39 23.59937 58.28549 44 ft 4 kts 49°
2026-05-08 18:39 23.59920 58.28526 44 ft 4 kts 53°
2026-05-08 18:40 23.59905 58.28502 43 ft 4 kts 59°
2026-05-08 18:40 23.59892 58.28476 43 ft 4 kts 64°
2026-05-08 18:40 23.59881 58.28450 44 ft 4 kts 70°
2026-05-08 18:40 23.59873 58.28422 44 ft 4 kts 76°
2026-05-08 18:41 23.59868 58.28393 43 ft 4 kts 82°
2026-05-08 18:41 23.59866 58.28364 43 ft 4 kts 88°
2026-05-08 18:41 23.59866 58.28335 43 ft 4 kts 92°
2026-05-08 18:41 23.59867 58.28306 44 ft 4 kts 91°
2026-05-08 18:42 23.59866 58.28286 43 ft 0 kts 85°
2026-05-08 18:44 23.59867 58.28295 43 ft 4 kts 84°
2026-05-08 18:45 23.59870 58.28353 44 ft 10 kts 94°
2026-05-08 18:45 23.59828 58.28402 47 ft 11 kts 172°
2026-05-08 18:45 23.59740 58.28411 49 ft 14 kts 174°
2026-05-08 18:45 23.59629 58.28423 48 ft 17 kts 174°
2026-05-08 18:46 23.59526 58.28452 47 ft 15 kts 126°
2026-05-08 18:46 23.59527 58.28567 48 ft 18 kts 83°
2026-05-08 18:46 23.59539 58.28710 44 ft 21 kts 85°
2026-05-08 18:46 23.59552 58.28877 44 ft 23 kts 85°
2026-05-08 18:47 23.59566 58.29060 44 ft 25 kts 85°
2026-05-08 18:47 23.59582 58.29255 46 ft 26 kts 84°
2026-05-08 18:47 23.59600 58.29457 50 ft 27 kts 84°
2026-05-08 18:47 23.59616 58.29664 46 ft 28 kts 85°
2026-05-08 18:48 23.59633 58.29877 46 ft 29 kts 85°
2026-05-08 18:48 23.59644 58.30013 48 ft 15 kts 85°
2026-05-08 18:48 23.59654 58.30137 44 ft 19 kts 85°
2026-05-08 18:48 23.59658 58.30188 50 ft 1 kts 97°
2026-05-08 18:49 23.59656 58.30195 50 ft 1 kts 123°
2026-05-08 18:49 23.59652 58.30200 44 ft 1 kts 148°
2026-05-08 18:49 23.59635 58.30206 48 ft 5 kts 166°
2026-05-08 18:49 23.59600 58.30199 47 ft 8 kts 197°
2026-05-08 18:50 23.59559 58.30186 44 ft 4 kts 197°
2026-05-08 18:50 23.59552 58.30183 45 ft 0 kts 197°
2026-05-08 18:50 23.59547 58.30182 45 ft 2 kts 197°
2026-05-08 18:51 23.59531 58.30176 46 ft 9 kts 197°
2026-05-08 18:51 23.59472 58.30154 48 ft 8 kts 216°
2026-05-08 18:51 23.59447 58.30099 43 ft 10 kts 250°
2026-05-08 18:51 23.59442 58.30076 45 ft 0 kts 269°
2026-05-08 18:53 23.59442 58.30066 46 ft 14 kts 269°
2026-05-08 18:53 23.59407 58.29623 45 ft 101 kts 264°
2026-05-08 18:54 23.59323 58.28618 46 ft 159 kts 266°
2026-05-08 18:54 23.59227 58.27348 401 ft 173 kts 264°
2026-05-08 18:54 23.59146 58.26021 846 ft 177 kts 267°
2026-05-08 18:54 23.59084 58.24683 1361 ft 176 kts 270°
2026-05-08 18:55 23.59748 58.22274 2393 ft 171 kts 300°
2026-05-08 18:55 23.60261 58.21055 2673 ft 185 kts 292°
2026-05-08 18:55 23.60697 58.19671 2795 ft 201 kts 290°
2026-05-08 18:56 23.61152 58.18133 3036 ft 224 kts 289°
2026-05-08 18:56 23.61670 58.16430 3269 ft 249 kts 290°
2026-05-08 18:56 23.62256 58.14563 3544 ft 272 kts 290°
2026-05-08 18:56 23.62896 58.12557 3784 ft 294 kts 290°
2026-05-08 18:57 23.63583 58.10425 4080 ft 310 kts 290°
2026-05-08 18:57 23.64073 58.08908 4483 ft 314 kts 289°
2026-05-08 18:57 23.65039 58.05917 5273 ft 320 kts 289°
2026-05-08 18:57 23.65780 58.03617 5899 ft 324 kts 289°
2026-05-08 18:58 23.66532 58.01282 6502 ft 329 kts 289°
2026-05-08 18:58 23.67297 57.98907 7045 ft 334 kts 288°
2026-05-08 18:58 23.68071 57.96498 7599 ft 339 kts 289°
2026-05-08 18:58 23.68872 57.94063 8220 ft 343 kts 291°
2026-05-08 18:59 23.69951 57.91727 8879 ft 347 kts 302°
2026-05-08 18:59 23.71364 57.89581 9565 ft 350 kts 309°
2026-05-08 18:59 23.72903 57.87501 10189 ft 354 kts 309°
2026-05-08 18:59 23.74418 57.85410 10839 ft 358 kts 308°
2026-05-08 19:00 23.75961 57.83266 11485 ft 362 kts 308°
2026-05-08 19:00 23.77534 57.81078 12012 ft 370 kts 308°
2026-05-08 19:00 23.79130 57.78867 12732 ft 373 kts 308°
2026-05-08 19:00 23.80743 57.76626 13403 ft 377 kts 308°
2026-05-08 19:01 23.82372 57.74361 14022 ft 381 kts 308°
2026-05-08 19:01 23.84017 57.72075 14669 ft 384 kts 308°
2026-05-08 19:01 23.85672 57.69775 15286 ft 387 kts 308°
2026-05-08 19:01 23.87345 57.67450 15887 ft 391 kts 308°
2026-05-08 19:02 23.89008 57.65137 16486 ft 394 kts 308°
2026-05-08 19:02 23.90696 57.62793 17241 ft 392 kts 307°
2026-05-08 19:02 23.92390 57.60434 17758 ft 397 kts 307°
2026-05-08 19:02 23.94105 57.58044 18288 ft 401 kts 307°
2026-05-08 19:03 23.95831 57.55639 18796 ft 403 kts 307°
2026-05-08 19:03 23.97565 57.53221 19251 ft 407 kts 307°
2026-05-08 19:03 23.99314 57.50782 19681 ft 410 kts 307°
2026-05-08 19:03 24.01085 57.48310 19782 ft 419 kts 307°
2026-05-08 19:04 24.02914 57.45755 19775 ft 433 kts 307°
2026-05-08 19:04 24.04755 57.43182 19775 ft 436 kts 307°
2026-05-08 19:04 24.06620 57.40577 19772 ft 435 kts 307°
2026-05-08 19:04 24.08485 57.37969 19777 ft 435 kts 307°
2026-05-08 19:05 24.10335 57.35384 19771 ft 430 kts 307°
2026-05-08 19:05 24.12174 57.32808 19770 ft 429 kts 307°
2026-05-08 19:05 24.14009 57.30237 19774 ft 429 kts 307°
2026-05-08 19:05 24.15844 57.27665 19771 ft 429 kts 307°
2026-05-08 19:06 24.17685 57.25084 19775 ft 431 kts 307°
2026-05-08 19:06 24.19531 57.22493 19777 ft 432 kts 307°
2026-05-08 19:06 24.21357 57.19932 19777 ft 433 kts 306°
2026-05-08 19:06 24.23205 57.17335 19773 ft 432 kts 307°
2026-05-08 19:07 24.25056 57.14736 19776 ft 433 kts 306°
2026-05-08 19:07 24.26906 57.12135 19771 ft 433 kts 306°
2026-05-08 19:07 24.28749 57.09542 19777 ft 429 kts 307°
2026-05-08 19:07 24.30576 57.06971 19781 ft 427 kts 307°
2026-05-08 19:08 24.32404 57.04397 19763 ft 428 kts 307°
2026-05-08 19:08 24.34230 57.01825 19777 ft 428 kts 307°
2026-05-08 19:08 24.36031 56.99285 19779 ft 428 kts 307°
2026-05-08 19:08 24.37856 56.96712 19768 ft 428 kts 307°
2026-05-08 19:09 24.39683 56.94133 19773 ft 428 kts 307°
2026-05-08 19:09 24.41508 56.91557 19766 ft 428 kts 307°
2026-05-08 19:09 24.43332 56.88981 19751 ft 428 kts 307°
2026-05-08 19:09 24.45150 56.86411 19726 ft 423 kts 307°
2026-05-08 19:10 24.46930 56.83897 19626 ft 411 kts 307°
2026-05-08 19:10 24.48654 56.81459 19477 ft 398 kts 307°
2026-05-08 19:10 24.50319 56.79103 18991 ft 394 kts 307°
2026-05-08 19:10 24.51989 56.76736 18493 ft 391 kts 307°
2026-05-08 19:11 24.53650 56.74384 17965 ft 388 kts 307°
2026-05-08 19:11 24.55294 56.72053 17383 ft 385 kts 307°
2026-05-08 19:11 24.56936 56.69732 16717 ft 385 kts 307°
2026-05-08 19:11 24.58575 56.67414 16139 ft 383 kts 307°
2026-05-08 19:12 24.60207 56.65106 15574 ft 381 kts 307°
2026-05-08 19:12 24.61830 56.62810 15051 ft 379 kts 307°
2026-05-08 19:12 24.63442 56.60528 14504 ft 377 kts 308°
2026-05-08 19:12 24.65046 56.58255 13942 ft 376 kts 308°
2026-05-08 19:13 24.66620 56.56019 13476 ft 372 kts 308°
2026-05-08 19:13 24.68184 56.53801 13085 ft 363 kts 309°
2026-05-08 19:13 24.69733 56.51603 12496 ft 363 kts 309°
2026-05-08 19:13 24.71268 56.49425 12033 ft 357 kts 308°
2026-05-08 19:14 24.72777 56.47278 11517 ft 354 kts 309°
2026-05-08 19:14 24.74273 56.45152 11049 ft 349 kts 308°
2026-05-08 19:14 24.75754 56.43046 10529 ft 346 kts 308°
2026-05-08 19:14 24.77235 56.40938 9955 ft 348 kts 308°
2026-05-08 19:15 24.78684 56.38875 9819 ft 333 kts 308°
2026-05-08 19:15 24.80049 56.36926 9677 ft 319 kts 308°
2026-05-08 19:15 24.81353 56.35014 9551 ft 306 kts 307°
2026-05-08 19:15 24.82599 56.33154 9293 ft 299 kts 307°
2026-05-08 19:16 24.83823 56.31325 8955 ft 296 kts 307°
2026-05-08 19:16 24.85023 56.29540 8876 ft 282 kts 306°
2026-05-08 19:16 24.86165 56.27843 8786 ft 270 kts 306°
2026-05-08 19:16 24.87267 56.26207 8613 ft 263 kts 306°
2026-05-08 19:17 24.88269 56.24538 8323 ft 261 kts 298°
2026-05-08 19:17 24.89148 56.22790 8019 ft 260 kts 299°
2026-05-08 19:17 24.90036 56.21055 7719 ft 260 kts 300°
2026-05-08 19:17 24.90913 56.19350 7442 ft 258 kts 300°
2026-05-08 19:18 24.91803 56.17623 7095 ft 259 kts 300°
2026-05-08 19:18 24.92659 56.15884 6745 ft 260 kts 297°
2026-05-08 19:18 24.93282 56.13981 6185 ft 269 kts 284°
2026-05-08 19:18 24.93701 56.11936 5656 ft 275 kts 283°
2026-05-08 19:19 24.94103 56.09897 5375 ft 271 kts 282°
2026-05-08 19:19 24.94502 56.07881 4995 ft 269 kts 283°
2026-05-08 19:19 24.94898 56.05902 4724 ft 263 kts 283°
2026-05-08 19:19 24.95300 56.03927 4291 ft 265 kts 284°
2026-05-08 19:20 24.95703 56.01979 4065 ft 263 kts 283°
2026-05-08 19:20 24.95839 56.01319 4025 ft 259 kts 283°
2026-05-08 19:20 24.96470 55.98248 4030 ft 235 kts 283°
2026-05-08 19:20 24.96825 55.96515 4022 ft 231 kts 283°
2026-05-08 19:21 24.97180 55.94785 4000 ft 232 kts 283°
2026-05-08 19:21 24.97532 55.93062 4012 ft 229 kts 283°
2026-05-08 19:21 24.97884 55.91340 4024 ft 231 kts 283°
2026-05-08 19:21 24.98234 55.89626 4009 ft 226 kts 284°
2026-05-08 19:22 24.98568 55.87991 4021 ft 219 kts 284°
2026-05-08 19:22 24.98898 55.86372 4029 ft 212 kts 283°
2026-05-08 19:22 24.99220 55.84798 4029 ft 212 kts 283°
2026-05-08 19:22 24.99548 55.83204 4024 ft 213 kts 285°
2026-05-08 19:23 25.00077 55.81678 4023 ft 214 kts 297°
2026-05-08 19:23 25.00861 55.80281 4022 ft 214 kts 302°
2026-05-08 19:23 25.01657 55.78890 4024 ft 215 kts 301°
2026-05-08 19:23 25.02443 55.77484 4026 ft 216 kts 301°
2026-05-08 19:24 25.03219 55.76091 4028 ft 217 kts 301°
2026-05-08 19:24 25.04007 55.74674 3926 ft 217 kts 301°
2026-05-08 19:24 25.04799 55.73257 3776 ft 216 kts 301°
2026-05-08 19:24 25.05585 55.71850 3668 ft 215 kts 301°
2026-05-08 19:25 25.06368 55.70448 3562 ft 214 kts 301°
2026-05-08 19:25 25.07144 55.69057 3417 ft 213 kts 301°
2026-05-08 19:25 25.07917 55.67672 3185 ft 211 kts 301°
2026-05-08 19:25 25.08679 55.66304 2908 ft 208 kts 301°
2026-05-08 19:26 25.09436 55.64946 2648 ft 208 kts 301°
2026-05-08 19:26 25.10179 55.63614 2387 ft 205 kts 301°
2026-05-08 19:26 25.10927 55.62279 2137 ft 201 kts 302°
2026-05-08 19:26 25.11646 55.61042 2011 ft 183 kts 302°
2026-05-08 19:27 25.12304 55.59883 2011 ft 176 kts 301°
2026-05-08 19:27 25.12942 55.58733 2009 ft 176 kts 300°
2026-05-08 19:27 25.13579 55.57585 2008 ft 175 kts 300°
2026-05-08 19:27 25.14214 55.56437 2010 ft 176 kts 300°
2026-05-08 19:28 25.14853 55.55285 2010 ft 175 kts 300°
2026-05-08 19:28 25.15479 55.54155 2009 ft 175 kts 300°
2026-05-08 19:28 25.16117 55.53003 2005 ft 177 kts 301°
2026-05-08 19:28 25.16757 55.51847 2004 ft 177 kts 301°
2026-05-08 19:29 25.17390 55.50705 2001 ft 167 kts 301°
2026-05-08 19:29 25.17949 55.49695 1997 ft 145 kts 301°
2026-05-08 19:29 25.18460 55.48772 1848 ft 138 kts 301°
2026-05-08 19:29 25.18955 55.47878 1682 ft 135 kts 301°
2026-05-08 19:30 25.19450 55.46991 1534 ft 136 kts 301°
2026-05-08 19:30 25.19972 55.46124 1387 ft 135 kts 301°
2026-05-08 19:30 25.20438 55.45230 1239 ft 137 kts 297°
2026-05-08 19:30 25.20902 55.44308 1039 ft 139 kts 298°
2026-05-08 19:31 25.21413 55.43388 880 ft 143 kts 300°
2026-05-08 19:31 25.21940 55.42458 673 ft 143 kts 300°
2026-05-08 19:31 25.22468 55.41517 452 ft 144 kts 298°
2026-05-08 19:31 25.23001 55.40557 283 ft 147 kts 299°
2026-05-08 19:32 25.23520 55.39618 98 ft 141 kts 298°
2026-05-08 19:32 25.24008 55.38727 30 ft 121 kts 301°
2026-05-08 19:32 25.24377 55.38067 30 ft 84 kts 301°
2026-05-08 19:32 25.24622 55.37625 28 ft 42 kts 301°
2026-05-08 19:33 25.24688 55.37506 27 ft 15 kts 301°
2026-05-08 19:33 25.24746 55.37399 28 ft 18 kts 297°
2026-05-08 19:33 25.24778 55.37266 29 ft 19 kts 275°
2026-05-08 19:33 25.24787 55.37114 28 ft 21 kts 273°
2026-05-08 19:34 25.24801 55.36956 27 ft 20 kts 291°
2026-05-08 19:34 25.24857 55.36809 27 ft 22 kts 285°
2026-05-08 19:34 25.24892 55.36670 26 ft 12 kts 293°
2026-05-08 19:34 25.24942 55.36575 26 ft 16 kts 302°
2026-05-08 19:35 25.24984 55.36453 26 ft 18 kts 273°
2026-05-08 19:35 25.24987 55.36344 26 ft 12 kts 273°
2026-05-08 19:35 25.24988 55.36269 32 ft 9 kts 238°
2026-05-08 19:35 25.24947 55.36237 29 ft 3 kts 208°
2026-05-08 19:36 25.24931 55.36227 29 ft 4 kts 211°
2026-05-08 19:36 25.24927 55.36224 29 ft 0 kts 211°